Location: Newark
(40.7066°N, 111.8219°W)
Time: 12:21:03
(UTC+00:00)

Vanguard 3 - Visible Passes

Search period start: 13 November 2019 00:00
Search period end: 23 November 2019 00:00
Orbit: 508 x 3263 km, 33.3° (Epoch: 12 November)

Date Brightness Start Highest point End Pass type
(mag) Time Alt. Az. Time Alt. Az. Time Alt. Az.
13 Nov 9.4 01:05:34 10° WSW 01:22:00 62° S 01:30:31 15° ESE visible
13 Nov 8.9 03:23:01 10° W 03:34:56 45° SSW 03:35:05 45° SSW visible
14 Nov 9.1 02:05:30 10° W 02:20:27 58° SSW 02:25:22 31° SE visible
14 Nov 9.9 04:23:13 10° W 04:29:56 26° WSW 04:29:56 26° WSW visible
15 Nov 9.6 00:47:52 10° WSW 01:05:15 64° S 01:15:36 10° ESE visible
15 Nov 9.1 03:05:35 10° W 03:18:25 45° SSW 03:20:14 41° S visible
16 Nov 9.4 01:47:53 10° W 02:03:47 58° SSW 02:10:35 23° SE visible
16 Nov 9.8 04:06:01 10° W 04:15:09 28° SW 04:15:09 28° SW visible
17 Nov 9.8 00:30:11 10° W 00:48:23 65° S 00:59:36 10° ESE visible
17 Nov 9.3 02:48:04 10° W 03:01:45 43° SSW 03:05:33 32° SSE visible
17 Nov 10.6 05:08:29 10° WSW 05:10:07 12° WSW 05:10:07 12° WSW visible
18 Nov 9.7 01:30:14 10° W 01:47:00 57° SSW 01:55:59 15° SE visible
18 Nov 9.8 03:48:45 10° W 03:58:59 27° SW 04:00:34 26° SSW visible
19 Nov 10.0 00:12:34 10° W 00:31:24 65° S 00:43:30 10° ESE visible
19 Nov 9.7 02:30:31 10° W 02:44:58 42° SSW 02:51:05 22° SSE visible
19 Nov 10.6 04:52:06 10° WSW 04:55:32 12° SW 04:55:41 12° SW visible
20 Nov 9.9 01:12:37 10° W 01:30:04 56° SSW 01:40:56 10° SE visible
20 Nov 10.0 03:31:28 10° W 03:42:10 25° SW 03:46:16 20° SSW visible
21 Nov 10.1 02:12:58 10° W 02:28:03 40° SW 02:36:56 13° SSE visible
21 Nov 10.7 04:36:03 10° WSW 04:38:42 11° SW 04:41:05 10° SW visible
22 Nov 10.2 00:55:01 10° W 01:13:01 54° SSW 01:24:42 10° SE visible
22 Nov 10.4 03:14:11 10° W 03:25:12 24° SW 03:32:18 12° S visible
